Weather History for East Midlands, United Kingdom

Change the Weather History Date:

Tuesday, October 30, 2012

  Actual Average Record
Temperature  
Mean Temperature 44 °F -  
Max Temperature 50 °F 47 °F 64 °F (2014)
Min Temperature 37 °F 38 °F 32 °F (1997)
Degree Days  
Heating Degree Days 22    
Moisture  
Dew Point 38 °F    
Average Humidity 79    
Maximum Humidity 93    
Minimum Humidity 62    
Precipitation  
Precipitation 0.00 in - - ()
Sea Level Pressure  
Sea Level Pressure 29.59 in    
Wind  
Wind Speed 10 mph ()    
Max Wind Speed 18 mph    
Max Gust Speed -    
Visibility 6.1 miles    
Events      
Averages and records for this station are not official NWS values.
T = Trace of Precipitation, MM = Missing Value Source: Averaged Metar Reports

Daily Weather History Graph

Daily Weather History Graph

Search for Another Location

Airport:

Trip Planner

Search our weather history database for the weather conditions in past years. The results will help you decide how hot, cold, wet, or windy it might be!

Date:

Astronomy

Oct. 30, 2012 Rise Set
Actual Time 6:59 AM GMT 4:37 PM GMT
Civil Twilight 6:23 AM GMT 5:13 PM GMT
Nautical Twilight 5:42 AM GMT 5:54 PM GMT
Astronomical Twilight 5:02 AM GMT 6:34 PM GMT
Moon 4:46 PM GMT (10/30) 7:41 AM GMT (10/30)
Length of Visible Light 10h 50m
Length of Day
9h 38m
Full, 100% of the Moon is Illuminated
Oct 30
Full
Nov 7
Last Quarter
Nov 13
New
Nov 20
First Quarter
Nov 28
Full

Hourly Weather History & Observations

Time (GMT) Temp. Windchill Dew Point Humidity Pressure Visibility Wind Dir Wind Speed Gust Speed Precip Events Conditions
12:20 AM 41.0 °F 38.0 °F 39.2 °F 93% 29.71 in 5.6 mi West 4.6 mph - N/A   Partly Cloudy
12:50 AM 42.8 °F 38.0 °F 41.0 °F 93% 29.71 in 5.6 mi West 8.1 mph - N/A   Scattered Clouds
1:20 AM 42.8 °F 38.6 °F 41.0 °F 93% 29.71 in 5.6 mi West 6.9 mph - N/A   Scattered Clouds
1:50 AM 42.8 °F 37.5 °F 41.0 °F 93% 29.71 in 5.6 mi West 9.2 mph - N/A   Scattered Clouds
2:20 AM 41.0 °F 34.7 °F 39.2 °F 93% 29.71 in - West 10.4 mph - N/A   Clear
2:50 AM 41.0 °F 34.7 °F 39.2 °F 93% 29.71 in 6.2 mi West 10.4 mph - N/A   Scattered Clouds
3:20 AM 41.0 °F 34.7 °F 39.2 °F 93% 29.71 in - West 10.4 mph - N/A   Clear
3:50 AM 39.2 °F 32.0 °F 37.4 °F 93% 29.68 in - West 11.5 mph - N/A   Clear
4:20 AM 39.2 °F 32.0 °F 37.4 °F 93% 29.68 in - West 11.5 mph - N/A   Clear
4:50 AM 39.2 °F 32.0 °F 37.4 °F 93% 29.68 in - West 11.5 mph - N/A   Clear
5:20 AM 39.2 °F 33.6 °F 35.6 °F 87% 29.68 in - West 8.1 mph - N/A   Clear
5:50 AM 37.4 °F 30.3 °F 35.6 °F 93% 29.68 in - West 10.4 mph - N/A   Clear
6:20 AM 37.4 °F 32.1 °F 35.6 °F 93% 29.68 in - WSW 6.9 mph - N/A   Clear
6:50 AM 37.4 °F 30.8 °F 35.6 °F 93% 29.68 in - WSW 9.2 mph - N/A   Clear
7:20 AM 39.2 °F 32.0 °F 35.6 °F 87% 29.68 in - WSW 11.5 mph - N/A   Clear
7:50 AM 39.2 °F 32.5 °F 35.6 °F 87% 29.68 in - SW 10.4 mph - N/A   Clear
8:20 AM 41.0 °F 34.3 °F 37.4 °F 87% 29.68 in - WSW 11.5 mph - N/A   Clear
8:50 AM 42.8 °F 36.2 °F 39.2 °F 87% 29.68 in - WSW 12.7 mph - N/A   Clear
9:20 AM 44.6 °F 38.1 °F 39.2 °F 81% 29.65 in - WSW 13.8 mph - N/A   Clear
9:50 AM 44.6 °F 38.1 °F 39.2 °F 81% 29.65 in - WSW 13.8 mph - N/A   Clear
10:20 AM 46.4 °F 40.4 °F 41.0 °F 81% 29.65 in - West 13.8 mph - N/A   Clear
10:50 AM 46.4 °F 40.7 °F 39.2 °F 76% 29.62 in - WSW 12.7 mph - N/A   Clear
11:20 AM 46.4 °F 40.7 °F 39.2 °F 76% 29.62 in - West 12.7 mph - N/A   Clear
11:50 AM 48.2 °F - 39.2 °F 71% 29.62 in 6.2 mi WSW 16.1 mph - N/A   Partly Cloudy
12:20 PM 50.0 °F - 39.2 °F 66% 29.59 in 6.2 mi West 16.1 mph - N/A   Scattered Clouds
12:50 PM 50.0 °F - 37.4 °F 62% 29.59 in 6.2 mi West 16.1 mph - N/A   Mostly Cloudy
1:20 PM 50.0 °F - 39.2 °F 66% 29.59 in 6.2 mi SW 13.8 mph - N/A   Mostly Cloudy
1:50 PM 50.0 °F - 37.4 °F 62% 29.56 in 6.2 mi SW 13.8 mph - N/A   Scattered Clouds
2:20 PM 50.0 °F - 37.4 °F 62% 29.56 in 6.2 mi SW 13.8 mph - N/A   Scattered Clouds
2:50 PM 50.0 °F - 37.4 °F 62% 29.53 in 6.2 mi SW 12.7 mph - N/A   Scattered Clouds
3:20 PM 50.0 °F - 39.2 °F 66% 29.53 in 6.2 mi SW 11.5 mph - N/A   Scattered Clouds
3:50 PM 50.0 °F - 39.2 °F 66% 29.53 in 6.2 mi SW 11.5 mph - N/A   Mostly Cloudy
4:20 PM 48.2 °F - 39.2 °F 71% 29.53 in 6.2 mi WSW 12.7 mph - N/A   Mostly Cloudy
4:50 PM 48.2 °F - 39.2 °F 71% 29.53 in 6.2 mi SW 11.5 mph - N/A   Mostly Cloudy
5:20 PM 48.2 °F - 39.2 °F 71% 29.50 in 6.2 mi SW 12.7 mph - N/A   Mostly Cloudy
5:50 PM 48.2 °F - 39.2 °F 71% 29.50 in 6.2 mi SW 13.8 mph - N/A   Mostly Cloudy
6:20 PM 46.4 °F 40.7 °F 39.2 °F 76% 29.50 in 6.2 mi SW 12.7 mph - N/A   Mostly Cloudy
6:50 PM 46.4 °F 40.7 °F 39.2 °F 76% 29.50 in 6.2 mi SW 12.7 mph - N/A   Mostly Cloudy
7:20 PM 46.4 °F 40.7 °F 39.2 °F 76% 29.50 in 6.2 mi SW 12.7 mph - N/A   Mostly Cloudy
7:50 PM 46.4 °F 40.7 °F 39.2 °F 76% 29.47 in 6.2 mi SSW 12.7 mph - N/A   Mostly Cloudy
8:20 PM 46.4 °F 40.7 °F 37.4 °F 71% 29.47 in 6.2 mi SSW 12.7 mph - N/A   Mostly Cloudy
8:50 PM 46.4 °F 40.4 °F 37.4 °F 71% 29.47 in 6.2 mi SSW 13.8 mph - N/A   Mostly Cloudy
9:20 PM 46.4 °F 40.4 °F 37.4 °F 71% 29.44 in 6.2 mi SSW 13.8 mph - N/A   Mostly Cloudy
9:50 PM 46.4 °F 40.7 °F 37.4 °F 71% 29.44 in 6.2 mi SSW 12.7 mph - N/A   Mostly Cloudy
10:20 PM 44.6 °F 38.4 °F 37.4 °F 76% 29.42 in 6.2 mi SSW 12.7 mph - N/A   Mostly Cloudy
10:50 PM 46.4 °F 39.2 °F 37.4 °F 71% 29.42 in 6.2 mi SSW 18.4 mph - N/A   Mostly Cloudy
11:20 PM 46.4 °F 39.5 °F 37.4 °F 71% 29.39 in 6.2 mi SSW 17.3 mph - N/A   Mostly Cloudy
11:50 PM 46.4 °F 39.5 °F 37.4 °F 71% 29.39 in 6.2 mi SSW 17.3 mph - N/A   Mostly Cloudy